Simultaneous Nadir Overpasses (SNOs) Predictions

Prediction of SNOs between NPP and TERRA Satellite Orbit:

Table of predicted SNOs for the next 14.0 days since TLE Epoch: 7/13/2024
Index Date (NPP) Time (NPP) Lat,Lon (NPP) SZA (NPP ) Date (TERRA) Time (TERRA) Lat,Lon (TERRA) SZA (TERRA ) Distance(km) Time Diff (sec)
1 07/13/2024 08:21:07 72.36, 47.27 50.78 07/13/2024 08:21:22 72.36, 47.26 50.78 0.81 15
2 07/13/2024 09:11:49 -72.28,-145.26 129.30 07/13/2024 09:10:46 -72.26,-145.26 129.31 1.80 63
3 07/15/2024 19:33:37 72.43,-121.00 51.25 07/15/2024 19:34:30 72.40,-121.00 51.21 3.73 53
4 07/15/2024 20:24:19 -72.35, 46.48 128.83 07/15/2024 20:23:53 -72.35, 46.56 128.84 2.74 26
5 07/18/2024 06:46:19 73.12, 69.45 52.44 07/18/2024 06:47:26 73.04, 71.87 52.21 78.94 67
6 07/18/2024 07:36:48 -72.38,-121.69 128.38 07/18/2024 07:37:00 -72.40,-121.66 128.36 2.61 12
7 07/18/2024 08:27:33 72.31, 45.75 51.56 07/18/2024 08:26:22 72.28, 45.80 51.55 3.01 71
8 07/20/2024 18:49:17 -72.41, 70.12 127.88 07/20/2024 18:50:07 -72.42, 70.05 127.88 2.49 50
9 07/20/2024 19:40:02 72.34,-122.44 52.06 07/20/2024 19:39:28 72.36,-122.39 52.08 2.44 34
10 07/23/2024 06:01:55 -72.96, -99.12 126.78 07/23/2024 06:03:04 -72.88, -97.40 126.97 56.84 69
11 07/23/2024 06:52:30 72.39, 69.35 52.60 07/23/2024 06:52:33 72.40, 69.37 52.61 1.49 3
12 07/23/2024 07:43:11 -72.25,-123.05 127.55 07/23/2024 07:41:57 -72.29,-123.16 127.48 5.95 74
13 07/25/2024 18:04:59 72.44, -98.87 53.19 07/25/2024 18:05:38 72.46, -98.83 53.20 2.92 39
14 07/25/2024 18:55:41 -72.35, 68.63 126.91 07/25/2024 18:55:02 -72.35, 68.63 126.90 0.29 39



Historial Predications of SNOs between NPP and TERRA
